Tracking 19212 objects as of 17-Jul-2018
HD Live streaming from Space Station
objects crossing your sky now

FENGYUN 1C DEB

Track FENGYUN 1C DEB now!
10-day predictions


NORAD ID: 36196
Int'l Code: 1999-025DTV
Perigee: 825.6 km
Apogee: 883.2 km
Inclination: 99.0 °
Period: 101.9 minutes
Semi major axis: 7225 km
RCS: 0.0113 m2 (small)
Launch date: May 10, 1999
Source: People's Republic of China (PRC)
Launch site: Taiyaun Space Center, China (TSC)

Note: This is SATELLITE DEBRIS
aabbcc
Your satellite tracking list
Your tracking list is empty




NASA's NSSDC Master Catalog

Two Line Element Set (TLE):
1 36196U 99025DTV 18196.43450900 +.00000451 +00000-0 +26156-3 0  9993
2 36196 099.0324 276.7074 0039833 344.3209 015.6727 14.13539762262906
Source of the keplerian elements: AFSPC